Weather Roundup
Issued by NWS Springfield, MO

Home | Current Version | Previous Version | Text Only | Print | Product List | Glossary On
Versions: 1 2 3 4 5 6 7 8 9 10 11 12 13 14 15 16 17 18 19 20 21 22 23 24 25 26 27 28 29 30 31 32 33 34 35 36 37 38 39 40 41 42 43 44 45 46 47 48 49 50
000
NZUS99 KSGF 080407
HRRSGF

HOURLY WEATHER
NATIONAL WEATHER SERVICE SPRINGFIELD MO
1100 PM CDT TUE JUL 07 2015

......SGF CWA......

CITY           SKY/WX    TMP DP  RH WIND       PRES   REMARKS
SPRINGFIELD    LGT RAIN  67  66  97 E5        30.04R FOG
JOPLIN         CLOUDY    65  64  97 NE6       30.03F FOG
WEST PLAINS    CLOUDY    72  69  90 CALM      30.06S
ROLLA          CLOUDY    64  63  96 E12       30.05S
OSAGE BEACH    CLOUDY    64  63  94 NE6       30.06R
BRANSON          N/A     72  72 100 CALM      30.05F

......SURROUNDING SGF CWA......

CITY           SKY/WX    TMP DP  RH WIND       PRES   REMARKS
CHANUTE        LGT RAIN  64  62  93 NE5       30.05R FOG
PARSONS        LGT RAIN  65  64  97 VRB5      30.04S FOG
COFFEYVILLE    LGT RAIN  65  63  93 NE9       30.01F FOG
EMPORIA        LGT RAIN  63  61  93 NE7       30.07R
GROVE OK       LGT RAIN  68  68 100 NE3       30.02S
ROGERS AR      CLOUDY    72  71  97 SE8       30.03S
SILOAM SPRINGS CLOUDY    72  66  83 SE7       30.02S
HARRISON AR    CLOUDY    72  72 100 SE5       30.04F
NEAR YELLVILLE CLOUDY    72  70  94 CALM      30.01S

......KANSAS AND MISSOURI......

CITY           SKY/WX    TMP DP  RH WIND       PRES   REMARKS
KANSAS CTY INT CLOUDY    67  60  78 NE8       30.07R
DOWNTOWN KC    CLOUDY    70  60  70 E7        30.06R
COLUMBIA       LGT RAIN  65  64  97 E6        30.08R FOG
SEDALIA        LGT RAIN  67  64  90 E9        30.08R FOG
ST JOSEPH      CLOUDY    66  58  75 E5        30.08R
ST LOUIS       LGT RAIN  66  63  88 SE5       30.08S FOG
SPIRIT OF STL  CLOUDY    64  64 100 CALM      30.07R
KIRKSVILLE     CLOUDY    64  60  87 NE3       30.10R
WICHITA        LGT RAIN  64  60  87 NE9       30.06S
TOPEKA         CLOUDY    66  61  84 N5        30.07R
OLATHE         LGT RAIN  64  62  93 NE5       30.07R

......TENNESSEE......

CITY           SKY/WX    TMP DP  RH WIND       PRES   REMARKS
MEMPHIS        CLOUDY    83  74  74 S14G20    30.04F
NASHVILLE      RAIN      72  71  97 VRB5      30.13R FOG

......ARKANSAS.......

CITY           SKY/WX    TMP DP  RH WIND       PRES   REMARKS
FAYETTEVILLE   CLOUDY    69  69 100 CALM      30.02S
FT SMITH       LGT RAIN  74  71  91 CALM      30.01R
LITTLE ROCK    CLOUDY    82  73  74 CALM      30.03R

......OKLAHOMA.......

CITY           SKY/WX    TMP DP  RH WIND       PRES   REMARKS
TULSA          CLOUDY    67  65  93 N7        29.99R
PONCA CITY     LGT RAIN  64  62  93 NE8       30.03R FOG
MCALESTER      LGT RAIN  74  72  93 SE5       29.98R FOG
OKLAHOMA CITY  LGT RAIN  67  66  97 NE6       29.97R FOG

......IOWA............

CITY           SKY/WX    TMP DP  RH WIND       PRES   REMARKS
DES MOINES     MOCLDY    64  51  62 NE6       30.11R
QUAD CITIES    MOCLDY    62  57  83 CALM      30.09R

......ILLINOIS........

CITY           SKY/WX    TMP DP  RH WIND       PRES   REMARKS
QUINCY         CLOUDY    67  63  87 S3        30.08R FOG
CHICAGO        MOCLDY    56  46  69 N6        30.11R



USA.gov is the U.S. government's official web portal to all federal, state and local government web resources and services.